Weather History for Hoonah, AK

Change the Weather History Date:

Tuesday, April 30, 2013

  Actual Average Record
Temperature  
Mean Temperature 34 °F -  
Max Temperature 41 °F 49 °F 64 °F (2004)
Min Temperature 28 °F 32 °F 28 °F (2002)
Degree Days  
Heating Degree Days 30    
Moisture  
Dew Point 31 °F    
Average Humidity 82    
Maximum Humidity 100    
Minimum Humidity 61    
Precipitation  
Precipitation 0.00 in - - ()
Sea Level Pressure  
Sea Level Pressure 30.23 in    
Wind  
Wind Speed 2 mph (ESE)    
Max Wind Speed 8 mph    
Max Gust Speed -    
Visibility 10 miles    
Events Rain    
Averages and records for this station are not official NWS values.
T = Trace of Precipitation, MM = Missing Value Source: NWS Daily Summary

Daily Weather History Graph

Daily Weather History Graph

Search for Another Location

Airport:

Trip Planner

Search our weather history database for the weather conditions in past years. The results will help you decide how hot, cold, wet, or windy it might be!

Date:

Astronomy

Apr. 30, 2013 Rise Set
Actual Time 5:10 AM AKDT 8:49 PM AKDT
Civil Twilight 4:21 AM AKDT 9:37 PM AKDT
Nautical Twilight 3:12 AM AKDT 10:48 PM AKDT
Astronomical Twilight 1:31 AM AKDT 12:26 AM AKDT
Moon 1:32 AM AKDT (4/30) 9:35 AM AKDT (4/30)
Length of Visible Light 17h 16m
Length of Day
15h 38m
Waning Gibbous, 68% of the Moon is Illuminated
Apr 30
Waning Gibbous
May 2
Last Quarter
May 9
New
May 17
First Quarter
May 24
Full

Hourly Weather History & Observations

Time (AKDT) Temp. Windchill Dew Point Humidity Pressure Visibility Wind Dir Wind Speed Gust Speed Precip Events Conditions
12:56 AM 29.1 °F - 27.1 °F 92% 30.29 in 10.0 mi Calm Calm - N/A   Overcast
1:56 AM 30.0 °F - 27.1 °F 89% 30.29 in 10.0 mi Calm Calm - N/A   Mostly Cloudy
2:56 AM 29.1 °F - 27.1 °F 92% 30.28 in 10.0 mi Calm Calm - N/A   Overcast
3:56 AM 28.4 °F 24.6 °F 28.4 °F 100% 30.27 in 10.0 mi SE 3.5 mph - N/A   Overcast
4:56 AM 29.1 °F - 28.0 °F 96% 30.25 in 10.0 mi Calm Calm - N/A   Overcast
5:56 AM 30.0 °F - 28.0 °F 92% 30.25 in 10.0 mi Calm Calm - N/A   Overcast
6:56 AM 30.2 °F 26.7 °F 28.4 °F 93% 30.25 in 10.0 mi East 3.5 mph - N/A   Overcast
7:56 AM 32.9 °F - 30.0 °F 89% 30.25 in 10.0 mi Calm Calm - N/A   Overcast
8:56 AM 36.9 °F - 29.1 °F 74% 30.24 in 10.0 mi Calm Calm - N/A   Mostly Cloudy
9:56 AM 39.2 °F 35.9 °F 26.6 °F 61% 30.23 in 10.0 mi ENE 4.6 mph - N/A   Mostly Cloudy
10:56 AM 39.9 °F 35.1 °F 28.0 °F 63% 30.23 in 10.0 mi SE 6.9 mph - N/A   Overcast
11:56 AM 39.9 °F 35.1 °F 29.1 °F 65% 30.23 in 10.0 mi SE 6.9 mph - N/A   Mostly Cloudy
12:56 PM 39.2 °F 35.0 °F 30.2 °F 70% 30.23 in 10.0 mi ESE 5.8 mph - N/A   Mostly Cloudy
1:56 PM 39.9 °F 34.5 °F 32.0 °F 73% 30.24 in 10.0 mi ESE 8.1 mph - N/A   Overcast
2:56 PM 41.0 °F 35.8 °F 32.9 °F 73% 30.23 in 10.0 mi East 8.1 mph - N/A   Overcast
3:56 PM 41.0 °F 38.0 °F 32.9 °F 73% 30.23 in 10.0 mi Variable 4.6 mph - N/A   Overcast
4:56 PM 41.9 °F - 32.9 °F 70% 30.23 in 10.0 mi Calm Calm - N/A   Overcast
5:56 PM 41.9 °F 36.9 °F 32.0 °F 68% 30.22 in 10.0 mi West 8.1 mph - 0.00 in   Mostly Cloudy
6:56 PM 41.0 °F - 33.8 °F 76% 30.21 in 10.0 mi Calm Calm - N/A Rain Light Rain
7:56 PM 37.9 °F - 34.0 °F 86% 30.22 in 7.0 mi Calm Calm - 0.00 in Rain Light Rain
8:56 PM 37.9 °F 34.4 °F 34.9 °F 89% 30.20 in 10.0 mi East 4.6 mph - 0.00 in   Mostly Cloudy
9:56 PM 37.4 °F 34.9 °F 35.6 °F 93% 30.19 in 10.0 mi ENE 3.5 mph - N/A   Overcast
10:56 PM 36.0 °F - 36.0 °F 100% 30.19 in 10.0 mi Calm Calm - N/A   Overcast
11:56 PM 36.0 °F - 36.0 °F 100% 30.19 in 10.0 mi Calm Calm - N/A   Overcast